This is the latest recevied weather packets stored in our database for station/object WX8ASH-13. If no packets are shown the sender has not sent any weather packets the latest 10 day(s).
| Time | Temp. | Humidity | Pressure | Rain* | Wind** | Luminosity | Snow |
|---|---|---|---|---|---|---|---|
| 1778082022 | 10.56° C | 73% | 1018.9 hPa | 0 mm | - | - | - |
| 1778081721 | 10.56° C | 79% | 1018.8 hPa | 0 mm | - | - | - |
| 1778081422 | 10.56° C | 80% | 1018.9 hPa | 0 mm | - | - | - |
| 1778081122 | 10° C | 81% | 1018.9 hPa | 0 mm | - | - | - |
| 1778080821 | 10° C | 80% | 1018.9 hPa | 0.76 mm | - | - | - |
| 1778080523 | 10° C | 82% | 1018.9 hPa | 0.76 mm | - | - | - |
| 1778080221 | 10° C | 81% | 1018.8 hPa | 0.76 mm | - | - | - |
| 1778079922 | 10° C | 81% | 1018.5 hPa | 0.76 mm | - | - | - |
| 1778079620 | 10° C | 83% | 1018.4 hPa | 0.76 mm | - | - | - |
| 1778079319 | 9.44° C | 82% | 1018.4 hPa | 0.76 mm | - | - | - |
| 1778079019 | 9.44° C | 81% | 1018.3 hPa | 0.76 mm | - | - | - |
| 1778078720 | 9.44° C | 82% | 1018.2 hPa | 0.76 mm | - | - | - |
| 1778078420 | 9.44° C | 84% | 1017.9 hPa | 0.76 mm | - | - | - |
| 1778078121 | 8.89° C | 85% | 1017.7 hPa | 0.76 mm | - | - | - |
| 1778077820 | 8.89° C | 86% | 1017.8 hPa | 0.76 mm | - | - | - |
| 1778077518 | 8.89° C | 87% | 1017.8 hPa | 0.76 mm | - | - | - |
| 1778077219 | 8.33° C | 85% | 1017.9 hPa | 0 mm | - | - | - |
| 1778076922 | 8.33° C | 88% | 1017.9 hPa | 0 mm | - | - | - |
| 1778076618 | 8.33° C | 89% | 1017.9 hPa | 0 mm | - | - | - |
| 1778076319 | 8.33° C | 93% | 1017.7 hPa | 0 mm | - | - | - |
| 1778076019 | 7.78° C | 95% | 1017.7 hPa | 0 mm | - | - | - |
| 1778075718 | 7.78° C | 95% | 1017.7 hPa | 0 mm | - | - | - |
| 1778075419 | 7.78° C | 95% | 1017.7 hPa | 0 mm | - | - | - |
| 1778075117 | 7.78° C | 96% | 1017.8 hPa | 0 mm | - | - | - |
| 1778074818 | 7.22° C | 97% | 1017.8 hPa | 0 mm | - | - | - |
* Rain latest hour (hover to see other rain measurements)
** Current wind speed in m/s (hover to see current wind gust speed)